Location: ???????????
(54.6970°N, 39.1477°E)
Time: 09:46:28
(UTC+00:00)

Cosmos 1867 - Pass Details

Date: 19 May 2025
Orbit: 775 x 798 km, 65.0° (Epoch: 12 June)

Event Time Altitude Azimuth Distance (km) Brightness Sun altitude
Rises 18:06:09 0° 313° (NW) 3,315 9.9 -4.7°
Reaches altitude 10° 18:08:35 10° 313° (NW) 2,381 8.0 -5.0°
Maximum altitude 18:14:05 85° 226° (SW) 808 3.7 -5.5°
Drops below altitude 10° 18:19:32 10° 139° (SE) 2,361 5.3 -6.0°
Enters shadow 18:20:07 - 139° (SE) 2,583 5.5 -6.1°
